User: anonymous
Location: Caltech
(34.1382°N, 118.1253°W)
Time: 20:15:12
(UTC-07:00)
Language:

OAO 2 Rocket - Orbit

View from above orbital plane
View from above orbital plane
View from above satellite
View from above satellite

Ground track
Ground track

The orbit data is extracted from the following two-line orbital elements,

1 03598U 68110B   14109.20231885  .00000748  00000-0  17808-3 0  5920
2 03598 034.9951 016.6039 0050816 222.7858 300.2941 14.53569205398275
Epoch (UTC): 19 April 2014 04:51:20
Eccentricity: 0.0050816
inclination: 34.9951°
perigee height: 678 km
apogee height: 750 km
right ascension of ascending node: 16.6039°
argument of perigee: 222.7858°
revolutions per day: 14.53569205
mean anomaly at epoch: 300.2941°
orbit number at epoch: 39827

The dashed part of the orbit path shows where the satellite is in the earth's shadow,  

DLR